Time,TemperatureF,DewpointF,PressureIn,WindDirection,WindDirectionDegrees,WindSpeedMPH,WindSpeedGustMPH,Humidity,HourlyPrecipIn,Conditions,Clouds,dailyrainin,SoftwareType,DateUTC
2013-05-10 00:02:00,48.6,32.7,30.33,WSW,253,18.8,18.8,54,-99.99,,---,-99.99,VWS V14.01,2013-05-10 07:02:00,
2013-05-10 00:07:00,48.7,34.6,30.33,West,261,18.8,18.8,58,-99.99,,---,-99.99,VWS V14.01,2013-05-10 07:07:00,
2013-05-10 00:12:00,48.6,35.7,30.33,West,265,17.0,17.0,61,-99.99,,---,-99.99,VWS V14.01,2013-05-10 07:12:00,
2013-05-10 00:17:00,48.6,36.2,30.33,West,261,19.7,19.7,62,-99.99,,---,-99.99,VWS V14.01,2013-05-10 07:17:00,
2013-05-10 00:22:00,48.7,37.1,30.33,West,260,17.9,18.3,64,-99.99,,---,-99.99,VWS V14.01,2013-05-10 07:22:00,
2013-05-10 00:27:00,48.9,38.1,30.33,WSW,258,19.7,19.7,66,-99.99,,---,-99.99,VWS V14.01,2013-05-10 07:27:00,
2013-05-10 00:32:00,49.3,39.2,30.33,WSW,255,18.8,19.2,68,-99.99,,---,-99.99,VWS V14.01,2013-05-10 07:32:00,
2013-05-10 00:37:00,49.5,39.7,30.33,West,262,17.0,19.7,69,-99.99,,---,-99.99,VWS V14.01,2013-05-10 07:37:00,
2013-05-10 00:42:00,49.6,40.3,30.33,WSW,253,19.7,19.7,70,-99.99,,---,-99.99,VWS V14.01,2013-05-10 07:42:00,
2013-05-10 00:47:00,49.8,40.8,30.33,WSW,256,19.7,20.1,71,-99.99,,---,-99.99,VWS V14.01,2013-05-10 07:47:00,
2013-05-10 00:52:00,50.0,41.0,30.36,West,259,17.4,17.9,71,-99.99,,---,-99.99,VWS V14.01,2013-05-10 07:52:00,
2013-05-10 00:58:00,50.0,41.3,30.36,West,262,19.2,19.7,72,-99.99,,---,-99.99,VWS V14.01,2013-05-10 07:58:00,
2013-05-10 01:03:00,50.0,41.3,30.36,West,268,21.5,21.5,72,-99.99,,---,-99.99,VWS V14.01,2013-05-10 08:03:00,
2013-05-10 01:08:00,50.0,41.7,30.36,WSW,258,15.0,18.3,73,-99.99,,---,-99.99,VWS V14.01,2013-05-10 08:08:00,
2013-05-10 01:13:00,49.8,41.5,30.36,WSW,244,17.9,18.3,73,-99.99,,---,-99.99,VWS V14.01,2013-05-10 08:13:00,
2013-05-10 01:18:00,50.0,41.7,30.36,WSW,245,18.3,23.3,73,-99.99,,---,-99.99,VWS V14.01,2013-05-10 08:18:00,
2013-05-10 01:23:00,50.2,42.2,30.33,West,260,18.8,18.8,74,-99.99,,---,-99.99,VWS V14.01,2013-05-10 08:23:00,
2013-05-10 01:28:00,50.2,42.2,30.33,WSW,252,11.9,11.9,74,-99.99,,---,-99.99,VWS V14.01,2013-05-10 08:28:00,
2013-05-10 01:33:00,50.2,42.2,30.33,WSW,243,17.4,17.4,74,-99.99,,---,-99.99,VWS V14.01,2013-05-10 08:33:00,
2013-05-10 01:38:00,50.2,42.2,30.36,WSW,242,15.0,15.0,74,-99.99,,---,-99.99,VWS V14.01,2013-05-10 08:38:00,
2013-05-10 01:43:00,50.2,42.6,30.36,WSW,242,13.2,17.4,75,-99.99,,---,-99.99,VWS V14.01,2013-05-10 08:43:00,
2013-05-10 01:48:00,50.2,42.6,30.36,WSW,242,13.2,16.8,75,-99.99,,---,-99.99,VWS V14.01,2013-05-10 08:48:00,
2013-05-10 01:53:00,50.2,42.6,30.36,WSW,247,17.0,17.0,75,-99.99,,---,-99.99,VWS V14.01,2013-05-10 08:53:00,
2013-05-10 01:58:00,50.2,42.6,30.36,WSW,244,10.5,14.1,75,-99.99,,---,-99.99,VWS V14.01,2013-05-10 08:58:00,
2013-05-10 02:03:00,50.0,42.4,30.36,SW,231,15.4,15.9,75,-99.99,,---,-99.99,VWS V14.01,2013-05-10 09:03:00,
2013-05-10 02:08:00,50.2,42.6,30.36,WSW,239,13.6,13.6,75,-99.99,,---,-99.99,VWS V14.01,2013-05-10 09:08:00,
2013-05-10 02:13:00,50.2,42.6,30.36,WSW,257,12.8,12.8,75,-99.99,,---,-99.99,VWS V14.01,2013-05-10 09:13:00,
2013-05-10 02:18:00,50.2,42.6,30.36,WSW,246,18.8,18.8,75,-99.99,,---,-99.99,VWS V14.01,2013-05-10 09:18:00,
2013-05-10 02:23:00,50.2,42.9,30.33,WSW,254,15.4,17.4,76,-99.99,,---,-99.99,VWS V14.01,2013-05-10 09:23:00,
2013-05-10 02:28:00,50.2,42.9,30.33,WSW,252,16.3,18.3,76,-99.99,,---,-99.99,VWS V14.01,2013-05-10 09:28:00,
2013-05-10 02:33:00,50.2,42.9,30.33,WSW,246,17.4,17.4,76,-99.99,,---,-99.99,VWS V14.01,2013-05-10 09:33:00,
2013-05-10 02:38:00,50.2,42.9,30.33,WSW,242,15.4,17.0,76,-99.99,,---,-99.99,VWS V14.01,2013-05-10 09:38:00,
2013-05-10 02:43:00,50.2,42.9,30.33,West,259,12.8,15.4,76,-99.99,,---,-99.99,VWS V14.01,2013-05-10 09:43:00,
2013-05-10 02:48:00,50.2,42.9,30.33,WSW,242,17.4,17.4,76,-99.99,,---,-99.99,VWS V14.01,2013-05-10 09:48:00,
2013-05-10 02:54:00,50.2,42.9,30.36,WSW,251,12.8,14.5,76,-99.99,,---,-99.99,VWS V14.01,2013-05-10 09:54:00,
2013-05-10 02:59:00,50.0,42.7,30.36,WSW,245,12.8,16.3,76,-99.99,,---,-99.99,VWS V14.01,2013-05-10 09:59:00,
2013-05-10 03:04:00,50.0,42.7,30.36,WSW,250,15.0,15.4,76,-99.99,,---,-99.99,VWS V14.01,2013-05-10 10:04:00,
2013-05-10 03:09:00,50.0,43.1,30.36,WSW,249,15.4,15.4,77,-99.99,,---,-99.99,VWS V14.01,2013-05-10 10:09:00,
2013-05-10 03:14:00,49.8,42.9,30.36,WSW,248,16.8,16.8,77,-99.99,,---,-99.99,VWS V14.01,2013-05-10 10:14:00,
2013-05-10 03:19:00,49.8,42.9,30.36,WSW,256,13.6,17.4,77,-99.99,,---,-99.99,VWS V14.01,2013-05-10 10:19:00,
2013-05-10 03:24:00,49.8,42.9,30.36,West,259,15.0,18.3,77,-99.99,,---,-99.99,VWS V14.01,2013-05-10 10:24:00,
2013-05-10 03:29:00,49.8,43.2,30.36,West,263,12.8,12.8,78,-99.99,,---,-99.99,VWS V14.01,2013-05-10 10:29:00,
2013-05-10 03:34:00,49.8,43.2,30.36,WSW,245,15.0,15.0,78,-99.99,,---,-99.99,VWS V14.01,2013-05-10 10:34:00,
2013-05-10 03:39:00,49.8,43.2,30.36,WSW,245,11.9,15.9,78,-99.99,,---,-99.99,VWS V14.01,2013-05-10 10:39:00,
2013-05-10 03:44:00,49.8,43.2,30.36,WSW,244,13.2,13.6,78,-99.99,,---,-99.99,VWS V14.01,2013-05-10 10:44:00,
2013-05-10 03:49:00,49.8,43.2,30.36,WSW,246,15.4,19.2,78,-99.99,,---,-99.99,VWS V14.01,2013-05-10 10:49:00,
2013-05-10 03:54:00,49.8,43.6,30.36,WSW,251,18.8,18.8,79,-99.99,,---,-99.99,VWS V14.01,2013-05-10 10:54:00,
2013-05-10 03:59:00,49.8,43.6,30.36,WSW,254,11.9,15.4,79,-99.99,,---,-99.99,VWS V14.01,2013-05-10 10:59:00,
2013-05-10 04:04:00,49.8,43.6,30.36,WSW,244,17.4,17.4,79,-99.99,,---,-99.99,VWS V14.01,2013-05-10 11:04:00,
2013-05-10 04:09:00,49.8,43.6,30.33,WSW,254,15.4,15.4,79,-99.99,,---,-99.99,VWS V14.01,2013-05-10 11:09:00,
2013-05-10 04:14:00,49.8,43.6,30.33,WSW,247,19.7,19.7,79,-99.99,,---,-99.99,VWS V14.01,2013-05-10 11:14:00,
2013-05-10 04:19:00,49.6,43.4,30.33,WSW,253,15.4,19.7,79,-99.99,,---,-99.99,VWS V14.01,2013-05-10 11:19:00,
2013-05-10 04:24:00,49.6,43.4,30.33,WSW,256,18.8,18.8,79,-99.99,,---,-99.99,VWS V14.01,2013-05-10 11:24:00,
2013-05-10 04:29:00,49.5,43.6,30.33,West,267,17.4,17.4,80,-99.99,,---,-99.99,VWS V14.01,2013-05-10 11:29:00,
2013-05-10 04:34:00,49.5,43.6,30.33,West,260,14.5,15.9,80,-99.99,,---,-99.99,VWS V14.01,2013-05-10 11:34:00,
2013-05-10 04:39:00,49.6,43.7,30.36,WSW,251,15.9,17.9,80,-99.99,,---,-99.99,VWS V14.01,2013-05-10 11:39:00,
2013-05-10 04:44:00,49.6,43.7,30.36,West,262,17.4,17.4,80,-99.99,,---,-99.99,VWS V14.01,2013-05-10 11:44:00,
2013-05-10 04:49:00,49.6,43.7,30.36,WSW,252,14.5,19.2,80,-99.99,,---,-99.99,VWS V14.01,2013-05-10 11:49:00,
2013-05-10 04:54:00,49.8,44.2,30.36,WSW,254,12.3,15.4,81,-99.99,,---,-99.99,VWS V14.01,2013-05-10 11:54:00,
2013-05-10 04:59:00,49.8,44.2,30.36,WSW,254,17.4,17.4,81,-99.99,,---,-99.99,VWS V14.01,2013-05-10 11:59:00,
2013-05-10 05:05:00,49.8,44.2,30.36,WSW,255,16.3,17.4,81,-99.99,,---,-99.99,VWS V14.01,2013-05-10 12:05:00,
2013-05-10 05:10:00,49.8,44.2,30.36,WSW,256,14.1,15.0,81,-99.99,,---,-99.99,VWS V14.01,2013-05-10 12:10:00,
2013-05-10 05:15:00,49.6,44.1,30.36,WSW,249,17.9,17.9,81,-99.99,,---,-99.99,VWS V14.01,2013-05-10 12:15:00,
2013-05-10 05:20:00,49.6,44.1,30.36,WSW,256,13.2,15.4,81,-99.99,,---,-99.99,VWS V14.01,2013-05-10 12:20:00,
2013-05-10 05:25:00,49.6,44.1,30.36,WSW,254,15.4,15.4,81,-99.99,,---,-99.99,VWS V14.01,2013-05-10 12:25:00,
2013-05-10 05:30:00,49.6,44.1,30.36,West,259,16.8,16.8,81,-99.99,,---,-99.99,VWS V14.01,2013-05-10 12:30:00,
2013-05-10 05:35:00,49.5,43.9,30.36,West,261,15.4,18.8,81,-99.99,,---,-99.99,VWS V14.01,2013-05-10 12:35:00,
2013-05-10 05:40:00,49.5,44.2,30.36,WSW,256,17.4,18.3,82,-99.99,,---,-99.99,VWS V14.01,2013-05-10 12:40:00,
2013-05-10 05:45:00,49.3,44.0,30.36,West,261,17.0,17.4,82,-99.99,,---,-99.99,VWS V14.01,2013-05-10 12:45:00,
2013-05-10 05:50:00,49.3,44.0,30.36,West,259,15.4,15.4,82,-99.99,,---,-99.99,VWS V14.01,2013-05-10 12:50:00,
2013-05-10 05:55:00,49.3,44.0,30.36,WSW,246,14.5,15.0,82,-99.99,,---,-99.99,VWS V14.01,2013-05-10 12:55:00,
2013-05-10 06:00:00,49.5,44.2,30.36,West,262,13.2,13.2,82,-99.99,,---,-99.99,VWS V14.01,2013-05-10 13:00:00,
2013-05-10 06:05:00,49.5,44.2,30.36,West,263,12.8,15.4,82,-99.99,,---,-99.99,VWS V14.01,2013-05-10 13:05:00,
2013-05-10 06:10:00,49.6,44.4,30.36,West,261,17.4,17.4,82,-99.99,,---,-99.99,VWS V14.01,2013-05-10 13:10:00,
2013-05-10 06:15:00,49.6,44.4,30.36,West,265,15.4,15.4,82,-99.99,,---,-99.99,VWS V14.01,2013-05-10 13:15:00,
2013-05-10 06:20:00,49.6,44.4,30.36,West,264,15.4,17.4,82,-99.99,,---,-99.99,VWS V14.01,2013-05-10 13:20:00,
2013-05-10 06:25:00,49.8,44.5,30.36,West,262,14.1,15.4,82,-99.99,,---,-99.99,VWS V14.01,2013-05-10 13:25:00,
2013-05-10 06:30:00,49.8,44.5,30.36,West,275,15.4,16.8,82,-99.99,,---,-99.99,VWS V14.01,2013-05-10 13:30:00,
2013-05-10 06:35:00,50.2,44.9,30.33,West,268,19.7,22.4,82,-99.99,,---,-99.99,VWS V14.01,2013-05-10 13:35:00,
2013-05-10 06:40:00,50.2,44.6,30.33,West,265,22.4,22.4,81,-99.99,,---,-99.99,VWS V14.01,2013-05-10 13:40:00,
2013-05-10 06:45:00,50.5,44.9,30.33,West,270,20.1,23.7,81,-99.99,,---,-99.99,VWS V14.01,2013-05-10 13:45:00,
2013-05-10 06:50:00,50.9,44.6,30.36,West,279,22.4,22.4,79,-99.99,,---,-99.99,VWS V14.01,2013-05-10 13:50:00,
2013-05-10 06:55:00,51.6,44.7,30.36,WNW,282,19.2,19.2,77,-99.99,,---,-99.99,VWS V14.01,2013-05-10 13:55:00,
2013-05-10 07:00:00,51.6,44.0,30.36,West,270,15.0,19.7,75,-99.99,,---,-99.99,VWS V14.01,2013-05-10 14:00:00,
2013-05-10 07:05:00,51.4,43.4,30.36,West,275,17.0,18.3,74,-99.99,,---,-99.99,VWS V14.01,2013-05-10 14:05:00,
2013-05-10 07:10:00,51.3,41.5,30.36,WNW,287,19.7,20.6,69,-99.99,,---,-99.99,VWS V14.01,2013-05-10 14:10:00,
2013-05-10 07:16:00,50.7,29.1,30.36,West,267,18.8,20.1,43,-99.99,,---,-99.99,VWS V14.01,2013-05-10 14:16:00,
2013-05-10 07:21:00,49.5,24.3,30.36,West,281,14.1,24.2,37,-99.99,,---,-99.99,VWS V14.01,2013-05-10 14:21:00,
2013-05-10 07:26:00,46.8,11.9,30.36,West,281,15.4,21.0,24,-99.99,,---,-99.99,VWS V14.01,2013-05-10 14:26:00,
2013-05-10 07:31:00,44.2,5.7,30.36,WNW,293,18.8,21.5,20,-99.99,,---,-99.99,VWS V14.01,2013-05-10 14:31:00,
2013-05-10 07:36:00,44.6,6.0,30.36,WNW,291,18.3,19.7,20,-99.99,,---,-99.99,VWS V14.01,2013-05-10 14:36:00,
2013-05-10 07:41:00,45.0,6.3,30.36,WNW,286,16.8,19.7,20,-99.99,,---,-99.99,VWS V14.01,2013-05-10 14:41:00,
2013-05-10 07:46:00,46.0,7.2,30.36,WNW,294,14.5,19.7,20,-99.99,,---,-99.99,VWS V14.01,2013-05-10 14:46:00,
2013-05-10 07:51:00,46.8,6.7,30.36,WNW,295,15.4,18.3,19,-99.99,,---,-99.99,VWS V14.01,2013-05-10 14:51:00,
2013-05-10 07:56:00,47.3,7.1,30.36,WNW,302,15.0,19.2,19,-99.99,,---,-99.99,VWS V14.01,2013-05-10 14:56:00,
2013-05-10 08:01:00,48.0,7.7,30.36,WNW,286,17.4,17.4,19,-99.99,,---,-99.99,VWS V14.01,2013-05-10 15:01:00,
2013-05-10 08:06:00,48.4,8.0,30.36,West,281,19.2,19.2,19,-99.99,,---,-99.99,VWS V14.01,2013-05-10 15:06:00,
2013-05-10 08:11:00,48.9,8.5,30.36,NW,307,15.4,16.3,19,-99.99,,---,-99.99,VWS V14.01,2013-05-10 15:11:00,
2013-05-10 08:16:00,49.5,8.9,30.36,WNW,290,13.2,16.8,19,-99.99,,---,-99.99,VWS V14.01,2013-05-10 15:16:00,
2013-05-10 08:21:00,50.2,9.5,30.36,WNW,285,15.4,15.4,19,-99.99,,---,-99.99,VWS V14.01,2013-05-10 15:21:00,
2013-05-10 08:26:00,50.7,10.0,30.36,NW,305,15.9,15.9,19,-99.99,,---,-99.99,VWS V14.01,2013-05-10 15:26:00,
2013-05-10 08:31:00,50.9,10.1,30.36,WNW,302,12.3,20.1,19,-99.99,,---,-99.99,VWS V14.01,2013-05-10 15:31:00,
2013-05-10 08:36:00,51.3,10.4,30.36,NW,326,10.5,13.6,19,-99.99,,---,-99.99,VWS V14.01,2013-05-10 15:36:00,
2013-05-10 08:41:00,51.3,10.4,30.36,NW,307,10.5,12.8,19,-99.99,,---,-99.99,VWS V14.01,2013-05-10 15:41:00,
2013-05-10 08:46:00,51.4,10.6,30.36,NNW,334,5.8,15.9,19,-99.99,,---,-99.99,VWS V14.01,2013-05-10 15:46:00,
2013-05-10 08:51:00,52.2,10.0,30.36,West,281,11.9,13.2,18,-99.99,,---,-99.99,VWS V14.01,2013-05-10 15:51:00,
2013-05-10 08:56:00,52.3,10.1,30.36,WNW,301,11.9,15.0,18,-99.99,,---,-99.99,VWS V14.01,2013-05-10 15:56:00,
2013-05-10 09:01:00,52.2,10.0,30.36,WNW,297,12.8,12.8,18,-99.99,,---,-99.99,VWS V14.01,2013-05-10 16:01:00,
2013-05-10 09:06:00,52.7,10.4,30.36,WNW,298,5.8,8.3,18,-99.99,,---,-99.99,VWS V14.01,2013-05-10 16:06:00,
2013-05-10 09:11:00,53.2,10.9,30.36,WNW,286,9.6,15.0,18,-99.99,,---,-99.99,VWS V14.01,2013-05-10 16:11:00,
2013-05-10 09:16:00,54.0,11.4,30.36,NW,306,7.2,7.2,18,-99.99,,---,-99.99,VWS V14.01,2013-05-10 16:16:00,
2013-05-10 09:21:00,54.1,11.6,30.36,NNW,348,8.3,11.0,18,-99.99,,---,-99.99,VWS V14.01,2013-05-10 16:21:00,
2013-05-10 09:26:00,53.8,11.3,30.36,West,281,8.7,8.7,18,-99.99,,---,-99.99,VWS V14.01,2013-05-10 16:26:00,
2013-05-10 09:31:00,54.1,11.6,30.36,NW,314,5.8,11.0,18,-99.99,,---,-99.99,VWS V14.01,2013-05-10 16:31:00,
2013-05-10 09:36:00,54.1,11.6,30.36,WNW,288,10.1,10.1,18,-99.99,,---,-99.99,VWS V14.01,2013-05-10 16:36:00,
2013-05-10 09:41:00,54.7,12.0,30.36,NW,317,10.5,10.5,18,-99.99,,---,-99.99,VWS V14.01,2013-05-10 16:41:00,
2013-05-10 09:46:00,54.5,11.9,30.36,NNW,329,4.0,11.0,18,-99.99,,---,-99.99,VWS V14.01,2013-05-10 16:46:00,
2013-05-10 09:51:00,54.0,11.4,30.36,WNW,300,8.7,8.7,18,-99.99,,---,-99.99,VWS V14.01,2013-05-10 16:51:00,
2013-05-10 09:56:00,54.5,11.9,30.36,NNW,334,12.3,12.8,18,-99.99,,---,-99.99,VWS V14.01,2013-05-10 16:56:00,
2013-05-10 10:01:00,54.5,11.9,30.36,WNW,283,15.0,15.0,18,-99.99,,---,-99.99,VWS V14.01,2013-05-10 17:01:00,
2013-05-10 10:06:00,55.2,12.5,30.36,WNW,302,5.4,5.4,18,-99.99,,---,-99.99,VWS V14.01,2013-05-10 17:06:00,
2013-05-10 10:11:00,55.2,12.5,30.36,NW,321,8.1,8.7,18,-99.99,,---,-99.99,VWS V14.01,2013-05-10 17:11:00,
2013-05-10 10:16:00,55.4,11.3,30.36,NNW,336,8.7,8.7,17,-99.99,,---,-99.99,VWS V14.01,2013-05-10 17:16:00,
2013-05-10 10:21:00,55.2,12.5,30.36,WNW,291,12.8,12.8,18,-99.99,,---,-99.99,VWS V14.01,2013-05-10 17:21:00,
2013-05-10 10:26:00,55.4,11.3,30.36,NNW,338,11.0,11.0,17,-99.99,,---,-99.99,VWS V14.01,2013-05-10 17:26:00,
2013-05-10 10:31:00,56.5,12.2,30.36,NNW,346,10.5,10.5,17,-99.99,,---,-99.99,VWS V14.01,2013-05-10 17:31:00,
2013-05-10 10:36:00,56.5,12.2,30.36,WNW,299,0.0,10.1,17,-99.99,,---,-99.99,VWS V14.01,2013-05-10 17:36:00,
2013-05-10 10:41:00,56.8,12.5,30.36,North,0,12.3,12.3,17,-99.99,,---,-99.99,VWS V14.01,2013-05-10 17:41:00,
2013-05-10 10:46:00,56.5,12.2,30.36,NNW,346,4.9,11.0,17,-99.99,,---,-99.99,VWS V14.01,2013-05-10 17:46:00,
2013-05-10 10:51:00,57.2,12.8,30.36,North,0,10.5,10.5,17,-99.99,,---,-99.99,VWS V14.01,2013-05-10 17:51:00,
2013-05-10 10:56:00,57.7,13.2,30.36,WNW,284,0.0,0.0,17,-99.99,,---,-99.99,VWS V14.01,2013-05-10 17:56:00,
2013-05-10 11:01:00,57.7,13.2,30.36,WNW,287,8.1,8.1,17,-99.99,,---,-99.99,VWS V14.01,2013-05-10 18:01:00,
2013-05-10 11:06:00,57.6,13.1,30.36,NW,323,0.0,0.0,17,-99.99,,---,-99.99,VWS V14.01,2013-05-10 18:06:00,
2013-05-10 11:11:00,58.1,13.5,30.36,NNW,335,3.6,8.7,17,-99.99,,---,-99.99,VWS V14.01,2013-05-10 18:11:00,
2013-05-10 11:16:00,58.1,13.5,30.36,NNW,338,13.2,13.2,17,-99.99,,---,-99.99,VWS V14.01,2013-05-10 18:16:00,
2013-05-10 11:21:00,58.6,14.0,30.36,WNW,286,8.1,8.1,17,-99.99,,---,-99.99,VWS V14.01,2013-05-10 18:21:00,
2013-05-10 11:26:00,58.8,14.1,30.36,NNW,330,10.1,16.3,17,-99.99,,---,-99.99,VWS V14.01,2013-05-10 18:26:00,
2013-05-10 11:31:00,58.6,14.0,30.36,NW,323,12.3,12.8,17,-99.99,,---,-99.99,VWS V14.01,2013-05-10 18:31:00,
2013-05-10 11:36:00,59.4,14.6,30.36,NNW,333,13.6,15.0,17,-99.99,,---,-99.99,VWS V14.01,2013-05-10 18:36:00,
2013-05-10 11:41:00,59.4,14.6,30.36,NNW,341,10.1,10.5,17,-99.99,,---,-99.99,VWS V14.01,2013-05-10 18:41:00,
2013-05-10 11:46:00,59.4,14.6,30.36,WNW,285,5.8,7.6,17,-99.99,,---,-99.99,VWS V14.01,2013-05-10 18:46:00,
2013-05-10 11:52:00,59.2,14.4,30.36,NNW,338,8.3,10.1,17,-99.99,,---,-99.99,VWS V14.01,2013-05-10 18:52:00,
2013-05-10 11:57:00,59.4,14.6,30.36,North,2,0.0,0.0,17,-99.99,,---,-99.99,VWS V14.01,2013-05-10 18:57:00,
2013-05-10 12:02:00,60.1,15.1,30.36,WNW,292,5.8,5.8,17,-99.99,,---,-99.99,VWS V14.01,2013-05-10 19:02:00,
2013-05-10 12:07:00,60.3,15.3,30.36,NNW,329,0.0,0.0,17,-99.99,,---,-99.99,VWS V14.01,2013-05-10 19:07:00,
2013-05-10 12:12:00,60.3,15.3,30.36,North,9,0.0,0.0,17,-99.99,,---,-99.99,VWS V14.01,2013-05-10 19:12:00,
2013-05-10 12:17:00,61.0,14.5,30.36,NW,316,0.0,0.0,16,-99.99,,---,-99.99,VWS V14.01,2013-05-10 19:17:00,
2013-05-10 12:22:00,60.6,15.6,30.36,WNW,296,8.3,8.3,17,-99.99,,---,-99.99,VWS V14.01,2013-05-10 19:22:00,
2013-05-10 12:27:00,61.2,14.6,30.36,NW,313,0.0,0.0,16,-99.99,,---,-99.99,VWS V14.01,2013-05-10 19:27:00,
2013-05-10 12:32:00,61.3,14.8,30.36,NW,320,0.0,0.0,16,-99.99,,---,-99.99,VWS V14.01,2013-05-10 19:32:00,
2013-05-10 12:37:00,59.5,14.7,30.36,NW,310,0.0,0.0,17,-99.99,,---,-99.99,VWS V14.01,2013-05-10 19:37:00,
2013-05-10 12:42:00,59.9,15.0,30.36,WNW,297,0.0,0.0,17,-99.99,,---,-99.99,VWS V14.01,2013-05-10 19:42:00,
2013-05-10 12:47:00,60.4,15.4,30.36,WNW,300,0.0,0.0,17,-99.99,,---,-99.99,VWS V14.01,2013-05-10 19:47:00,
2013-05-10 12:52:00,61.2,14.6,30.36,WSW,250,0.0,0.0,16,-99.99,,---,-99.99,VWS V14.01,2013-05-10 19:52:00,
2013-05-10 12:57:00,61.3,14.8,30.36,West,266,0.0,0.0,16,-99.99,,---,-99.99,VWS V14.01,2013-05-10 19:57:00,
2013-05-10 13:02:00,61.0,14.5,30.36,NNW,332,0.0,0.0,16,-99.99,,---,-99.99,VWS V14.01,2013-05-10 20:02:00,
2013-05-10 13:07:00,60.1,15.1,30.36,WNW,287,13.2,13.2,17,-99.99,,---,-99.99,VWS V14.01,2013-05-10 20:07:00,
2013-05-10 13:12:00,60.3,15.3,30.36,West,272,0.0,0.0,17,-99.99,,---,-99.99,VWS V14.01,2013-05-10 20:12:00,
2013-05-10 13:17:00,60.6,15.6,30.36,NW,312,0.0,7.6,17,-99.99,,---,-99.99,VWS V14.01,2013-05-10 20:17:00,
2013-05-10 13:22:00,60.1,15.1,30.36,NW,323,0.0,0.0,17,-99.99,,---,-99.99,VWS V14.01,2013-05-10 20:22:00,
2013-05-10 13:27:00,60.1,15.1,30.36,North,8,0.0,0.0,17,-99.99,,---,-99.99,VWS V14.01,2013-05-10 20:27:00,
2013-05-10 13:32:00,61.7,15.1,30.36,NW,311,11.0,11.0,16,-99.99,,---,-99.99,VWS V14.01,2013-05-10 20:32:00,
2013-05-10 13:37:00,61.7,15.1,30.36,West,277,0.0,0.0,16,-99.99,,---,-99.99,VWS V14.01,2013-05-10 20:37:00,
2013-05-10 13:42:00,61.3,14.8,30.36,WNW,288,0.0,0.0,16,-99.99,,---,-99.99,VWS V14.01,2013-05-10 20:42:00,
2013-05-10 13:47:00,62.6,15.8,30.36,North,7,0.0,0.0,16,-99.99,,---,-99.99,VWS V14.01,2013-05-10 20:47:00,
2013-05-10 13:52:00,63.7,16.7,30.36,WNW,286,0.0,0.0,16,-99.99,,---,-99.99,VWS V14.01,2013-05-10 20:52:00,
2013-05-10 13:57:00,63.7,16.7,30.36,West,263,0.0,0.0,16,-99.99,,---,-99.99,VWS V14.01,2013-05-10 20:57:00,
2013-05-10 14:02:00,64.6,15.9,30.36,NNE,15,0.0,0.0,15,-99.99,,---,-99.99,VWS V14.01,2013-05-10 21:02:00,
2013-05-10 14:07:00,64.9,16.2,30.36,NNE,31,0.0,0.0,15,-99.99,,---,-99.99,VWS V14.01,2013-05-10 21:07:00,
2013-05-10 14:12:00,65.5,16.6,30.36,NNW,330,0.0,0.0,15,-99.99,,---,-99.99,VWS V14.01,2013-05-10 21:12:00,
2013-05-10 14:17:00,64.4,15.8,30.36,North,353,0.0,0.0,15,-99.99,,---,-99.99,VWS V14.01,2013-05-10 21:17:00,
2013-05-10 14:22:00,64.6,15.9,30.36,West,267,0.0,0.0,15,-99.99,,---,-99.99,VWS V14.01,2013-05-10 21:22:00,
2013-05-10 14:27:00,64.0,17.0,30.36,NNW,346,0.0,0.0,16,-99.99,,---,-99.99,VWS V14.01,2013-05-10 21:27:00,
2013-05-10 14:32:00,63.5,16.5,30.36,West,268,0.0,0.0,16,-99.99,,---,-99.99,VWS V14.01,2013-05-10 21:32:00,
2013-05-10 14:37:00,63.5,16.5,30.36,West,272,0.0,0.0,16,-99.99,,---,-99.99,VWS V14.01,2013-05-10 21:37:00,
2013-05-10 14:43:00,64.4,15.8,30.36,North,9,0.0,0.0,15,-99.99,,---,-99.99,VWS V14.01,2013-05-10 21:43:00,
2013-05-10 14:48:00,64.6,15.9,30.36,NW,326,0.0,0.0,15,-99.99,,---,-99.99,VWS V14.01,2013-05-10 21:48:00,
2013-05-10 14:53:00,63.0,16.1,30.33,West,264,0.0,0.0,16,-99.99,,---,-99.99,VWS V14.01,2013-05-10 21:53:00,
2013-05-10 14:58:00,61.9,15.2,30.33,WNW,284,0.0,0.0,16,-99.99,,---,-99.99,VWS V14.01,2013-05-10 21:58:00,
2013-05-10 15:03:00,61.3,14.8,30.33,North,350,0.0,0.0,16,-99.99,,---,-99.99,VWS V14.01,2013-05-10 22:03:00,
2013-05-10 15:08:00,61.5,14.9,30.33,West,266,0.0,0.0,16,-99.99,,---,-99.99,VWS V14.01,2013-05-10 22:08:00,
2013-05-10 15:13:00,62.8,15.9,30.33,North,0,0.0,0.0,16,-99.99,,---,-99.99,VWS V14.01,2013-05-10 22:13:00,
2013-05-10 15:18:00,63.1,16.2,30.33,SW,236,0.0,0.0,16,-99.99,,---,-99.99,VWS V14.01,2013-05-10 22:18:00,
2013-05-10 15:23:00,62.2,15.5,30.33,West,269,0.0,0.0,16,-99.99,,---,-99.99,VWS V14.01,2013-05-10 22:23:00,
2013-05-10 15:28:00,62.2,15.5,30.33,West,274,0.0,0.0,16,-99.99,,---,-99.99,VWS V14.01,2013-05-10 22:28:00,
2013-05-10 15:33:00,61.9,15.2,30.33,NNE,20,0.0,0.0,16,-99.99,,---,-99.99,VWS V14.01,2013-05-10 22:33:00,
2013-05-10 15:38:00,62.2,15.5,30.33,NW,307,0.0,0.0,16,-99.99,,---,-99.99,VWS V14.01,2013-05-10 22:38:00,
2013-05-10 15:43:00,61.7,15.1,30.33,West,263,0.0,0.0,16,-99.99,,---,-99.99,VWS V14.01,2013-05-10 22:43:00,
2013-05-10 15:48:00,61.3,14.8,30.33,West,277,0.0,0.0,16,-99.99,,---,-99.99,VWS V14.01,2013-05-10 22:48:00,
2013-05-10 15:53:00,61.3,14.8,30.33,WNW,285,0.0,0.0,16,-99.99,,---,-99.99,VWS V14.01,2013-05-10 22:53:00,
2013-05-10 15:58:00,60.6,15.6,30.33,West,269,0.0,0.0,17,-99.99,,---,-99.99,VWS V14.01,2013-05-10 22:58:00,
2013-05-10 16:03:00,60.1,15.1,30.33,West,265,0.0,0.0,17,-99.99,,---,-99.99,VWS V14.01,2013-05-10 23:03:00,
2013-05-10 16:08:00,60.4,15.4,30.33,WNW,284,0.0,0.0,17,-99.99,,---,-99.99,VWS V14.01,2013-05-10 23:08:00,
2013-05-10 16:13:00,59.9,15.0,30.33,WSW,244,0.0,0.0,17,-99.99,,---,-99.99,VWS V14.01,2013-05-10 23:13:00,
2013-05-10 16:19:00,59.7,14.9,30.33,West,281,0.0,0.0,17,-99.99,,---,-99.99,VWS V14.01,2013-05-10 23:19:00,
2013-05-10 16:24:00,59.4,14.6,30.33,WSW,251,0.0,0.0,17,-99.99,,---,-99.99,VWS V14.01,2013-05-10 23:24:00,
2013-05-10 16:29:00,58.8,14.1,30.33,WSW,253,0.0,0.0,17,-99.99,,---,-99.99,VWS V14.01,2013-05-10 23:29:00,
2013-05-10 16:34:00,58.5,13.8,30.33,WSW,257,0.0,0.0,17,-99.99,,---,-99.99,VWS V14.01,2013-05-10 23:34:00,
2013-05-10 16:39:00,57.9,13.4,30.33,WSW,245,6.3,8.3,17,-99.99,,---,-99.99,VWS V14.01,2013-05-10 23:39:00,
2013-05-10 16:44:00,58.1,13.5,30.33,SW,236,5.8,6.3,17,-99.99,,---,-99.99,VWS V14.01,2013-05-10 23:44:00,
2013-05-10 16:49:00,58.1,13.5,30.33,WSW,255,10.5,10.5,17,-99.99,,---,-99.99,VWS V14.01,2013-05-10 23:49:00,
2013-05-10 16:54:00,58.1,13.5,30.33,West,259,5.4,11.0,17,-99.99,,---,-99.99,VWS V14.01,2013-05-10 23:54:00,
2013-05-10 16:59:00,57.7,13.2,30.33,West,261,5.4,10.5,17,-99.99,,---,-99.99,VWS V14.01,2013-05-10 23:59:00,
2013-05-10 17:04:00,57.7,13.2,30.33,WSW,255,9.6,9.6,17,-99.99,,---,-99.99,VWS V14.01,2013-05-11 00:04:00,
2013-05-10 17:09:00,57.9,13.4,30.33,WSW,241,7.6,7.6,17,-99.99,,---,-99.99,VWS V14.01,2013-05-11 00:09:00,
2013-05-10 17:14:00,57.2,12.8,30.33,West,265,11.4,13.2,17,-99.99,,---,-99.99,VWS V14.01,2013-05-11 00:14:00,
2013-05-10 17:19:00,56.7,12.4,30.33,WSW,249,13.2,13.2,17,-99.99,,---,-99.99,VWS V14.01,2013-05-11 00:19:00,
2013-05-10 17:24:00,56.3,12.1,30.33,WSW,242,11.4,11.4,17,-99.99,,---,-99.99,VWS V14.01,2013-05-11 00:24:00,
2013-05-10 17:29:00,56.1,11.9,30.33,West,263,8.7,11.0,17,-99.99,,---,-99.99,VWS V14.01,2013-05-11 00:29:00,
2013-05-10 17:34:00,56.3,12.1,30.33,WSW,252,10.1,11.4,17,-99.99,,---,-99.99,VWS V14.01,2013-05-11 00:34:00,
2013-05-10 17:39:00,56.3,12.1,30.33,WSW,245,10.1,10.1,17,-99.99,,---,-99.99,VWS V14.01,2013-05-11 00:39:00,
2013-05-10 17:44:00,56.1,11.9,30.33,WSW,250,8.3,8.7,17,-99.99,,---,-99.99,VWS V14.01,2013-05-11 00:44:00,
2013-05-10 17:49:00,55.8,11.6,30.33,WSW,255,8.3,9.2,17,-99.99,,---,-99.99,VWS V14.01,2013-05-11 00:49:00,
2013-05-10 17:54:00,55.6,11.5,30.33,West,259,11.4,11.4,17,-99.99,,---,-99.99,VWS V14.01,2013-05-11 00:54:00,
2013-05-10 17:59:00,55.2,12.5,30.33,WSW,246,8.3,10.5,18,-99.99,,---,-99.99,VWS V14.01,2013-05-11 00:59:00,
2013-05-10 18:04:00,55.0,12.3,30.33,WSW,250,13.2,13.2,18,-99.99,,---,-99.99,VWS V14.01,2013-05-11 01:04:00,
2013-05-10 18:09:00,54.9,12.2,30.33,WSW,252,10.5,12.3,18,-99.99,,---,-99.99,VWS V14.01,2013-05-11 01:09:00,
2013-05-10 18:14:00,54.9,12.2,30.33,WSW,251,10.5,15.0,18,-99.99,,---,-99.99,VWS V14.01,2013-05-11 01:14:00,
2013-05-10 18:19:00,54.3,11.7,30.33,WSW,253,13.2,13.2,18,-99.99,,---,-99.99,VWS V14.01,2013-05-11 01:19:00,
2013-05-10 18:25:00,54.5,11.9,30.33,WSW,257,12.3,15.4,18,-99.99,,---,-99.99,VWS V14.01,2013-05-11 01:25:00,
2013-05-10 18:30:00,54.1,11.6,30.33,WSW,244,13.2,15.4,18,-99.99,,---,-99.99,VWS V14.01,2013-05-11 01:30:00,
2013-05-10 18:35:00,53.8,11.3,30.33,WSW,248,16.8,17.0,18,-99.99,,---,-99.99,VWS V14.01,2013-05-11 01:35:00,
2013-05-10 18:40:00,53.6,11.1,30.33,WSW,246,17.0,17.0,18,-99.99,,---,-99.99,VWS V14.01,2013-05-11 01:40:00,
2013-05-10 18:45:00,53.4,11.0,30.33,SW,225,15.4,15.4,18,-99.99,,---,-99.99,VWS V14.01,2013-05-11 01:45:00,
2013-05-10 18:50:00,53.2,10.9,30.33,WSW,243,15.4,15.4,18,-99.99,,---,-99.99,VWS V14.01,2013-05-11 01:50:00,
2013-05-10 18:55:00,53.1,10.7,30.33,WSW,246,15.4,16.3,18,-99.99,,---,-99.99,VWS V14.01,2013-05-11 01:55:00,
2013-05-10 19:00:00,52.5,10.2,30.33,WSW,248,15.4,17.4,18,-99.99,,---,-99.99,VWS V14.01,2013-05-11 02:00:00,
2013-05-10 19:05:00,52.2,10.0,30.33,WSW,241,15.0,17.4,18,-99.99,,---,-99.99,VWS V14.01,2013-05-11 02:05:00,
2013-05-10 19:10:00,52.0,9.8,30.33,WSW,238,15.0,15.0,18,-99.99,,---,-99.99,VWS V14.01,2013-05-11 02:10:00,
2013-05-10 19:15:00,51.6,10.7,30.33,WSW,244,16.3,16.3,19,-99.99,,---,-99.99,VWS V14.01,2013-05-11 02:15:00,
2013-05-10 19:20:00,51.3,10.4,30.33,WSW,240,15.9,17.4,19,-99.99,,---,-99.99,VWS V14.01,2013-05-11 02:20:00,
2013-05-10 19:25:00,50.5,9.8,30.36,WSW,251,16.8,16.8,19,-99.99,,---,-99.99,VWS V14.01,2013-05-11 02:25:00,
2013-05-10 19:30:00,50.5,9.8,30.36,WSW,248,17.4,17.4,19,-99.99,,---,-99.99,VWS V14.01,2013-05-11 02:30:00,
2013-05-10 19:35:00,50.2,9.5,30.36,WSW,241,15.4,17.4,19,-99.99,,---,-99.99,VWS V14.01,2013-05-11 02:35:00,
2013-05-10 19:40:00,50.0,9.4,30.36,WSW,247,18.3,18.3,19,-99.99,,---,-99.99,VWS V14.01,2013-05-11 02:40:00,
2013-05-10 19:45:00,49.8,9.2,30.36,WSW,249,18.3,18.3,19,-99.99,,---,-99.99,VWS V14.01,2013-05-11 02:45:00,
2013-05-10 19:50:00,49.8,9.2,30.36,SW,236,17.4,17.4,19,-99.99,,---,-99.99,VWS V14.01,2013-05-11 02:50:00,
2013-05-10 19:55:00,49.5,8.9,30.36,WSW,244,14.1,18.3,19,-99.99,,---,-99.99,VWS V14.01,2013-05-11 02:55:00,
2013-05-10 20:00:00,49.6,9.1,30.36,WSW,254,21.5,21.5,19,-99.99,,---,-99.99,VWS V14.01,2013-05-11 03:00:00,
2013-05-10 20:05:00,50.0,9.4,30.36,WSW,251,15.4,20.6,19,-99.99,,---,-99.99,VWS V14.01,2013-05-11 03:05:00,
2013-05-10 20:10:00,50.0,9.4,30.36,WSW,246,15.4,20.1,19,-99.99,,---,-99.99,VWS V14.01,2013-05-11 03:10:00,
2013-05-10 20:15:00,50.0,9.4,30.36,WSW,252,18.3,18.3,19,-99.99,,---,-99.99,VWS V14.01,2013-05-11 03:15:00,
2013-05-10 20:20:00,50.2,9.5,30.36,WSW,249,18.8,22.4,19,-99.99,,---,-99.99,VWS V14.01,2013-05-11 03:20:00,
2013-05-10 20:25:00,50.2,9.5,30.36,WSW,253,16.3,20.6,19,-99.99,,---,-99.99,VWS V14.01,2013-05-11 03:25:00,
2013-05-10 20:30:00,50.4,9.7,30.36,WSW,251,18.3,21.0,19,-99.99,,---,-99.99,VWS V14.01,2013-05-11 03:30:00,
2013-05-10 20:35:00,50.4,9.7,30.36,WSW,239,18.3,19.2,19,-99.99,,---,-99.99,VWS V14.01,2013-05-11 03:35:00,
2013-05-10 20:41:00,50.4,9.7,30.36,WSW,240,18.8,18.8,19,-99.99,,---,-99.99,VWS V14.01,2013-05-11 03:41:00,
2013-05-10 20:46:00,50.4,9.7,30.36,WSW,256,13.2,19.7,19,-99.99,,---,-99.99,VWS V14.01,2013-05-11 03:46:00,
2013-05-10 20:51:00,50.4,9.7,30.39,SW,235,17.0,18.8,19,-99.99,,---,-99.99,VWS V14.01,2013-05-11 03:51:00,
2013-05-10 20:56:00,50.4,9.7,30.39,WSW,250,16.8,17.9,19,-99.99,,---,-99.99,VWS V14.01,2013-05-11 03:56:00,
2013-05-10 21:01:00,50.4,9.7,30.39,WSW,240,18.8,21.9,19,-99.99,,---,-99.99,VWS V14.01,2013-05-11 04:01:00,
2013-05-10 21:02:00,50.4,9.7,30.39,WSW,240,17.0,19.7,19,-99.99,,---,-99.99,VWS V14.01,2013-05-11 04:02:00,
2013-05-10 21:07:00,50.4,9.7,30.39,WSW,241,15.9,19.7,19,-99.99,,---,-99.99,VWS V14.01,2013-05-11 04:07:00,
2013-05-10 21:12:00,50.4,9.7,30.39,WSW,249,20.6,22.4,19,-99.99,,---,-99.99,VWS V14.01,2013-05-11 04:12:00,
2013-05-10 21:17:00,50.4,9.7,30.39,WSW,250,17.4,20.1,19,-99.99,,---,-99.99,VWS V14.01,2013-05-11 04:17:00,
2013-05-10 21:22:00,50.2,9.5,30.39,WSW,257,18.3,18.3,19,-99.99,,---,-99.99,VWS V14.01,2013-05-11 04:22:00,
2013-05-10 21:27:00,50.2,9.5,30.39,West,259,12.8,13.6,19,-99.99,,---,-99.99,VWS V14.01,2013-05-11 04:27:00,
2013-05-10 21:32:00,50.2,9.5,30.39,WSW,250,17.4,17.4,19,-99.99,,---,-99.99,VWS V14.01,2013-05-11 04:32:00,
2013-05-10 21:37:00,50.2,9.5,30.39,WSW,253,17.0,17.0,19,-99.99,,---,-99.99,VWS V14.01,2013-05-11 04:37:00,
2013-05-10 21:42:00,50.2,9.5,30.39,WSW,250,16.3,18.3,19,-99.99,,---,-99.99,VWS V14.01,2013-05-11 04:42:00,
2013-05-10 21:47:00,50.2,9.5,30.39,WSW,246,16.3,18.3,19,-99.99,,---,-99.99,VWS V14.01,2013-05-11 04:47:00,
2013-05-10 21:52:00,50.2,9.5,30.39,West,260,19.7,19.7,19,-99.99,,---,-99.99,VWS V14.01,2013-05-11 04:52:00,
2013-05-10 21:57:00,50.2,9.5,30.39,WSW,250,17.0,17.0,19,-99.99,,---,-99.99,VWS V14.01,2013-05-11 04:57:00,
2013-05-10 22:02:00,50.4,9.7,30.39,SW,235,18.8,19.7,19,-99.99,,---,-99.99,VWS V14.01,2013-05-11 05:02:00,
2013-05-10 22:07:00,50.2,9.5,30.42,WSW,252,18.3,18.3,19,-99.99,,---,-99.99,VWS V14.01,2013-05-11 05:07:00,
2013-05-10 22:12:00,50.2,9.5,30.42,WSW,258,18.3,19.7,19,-99.99,,---,-99.99,VWS V14.01,2013-05-11 05:12:00,
2013-05-10 22:17:00,50.4,9.7,30.42,WSW,244,19.7,19.7,19,-99.99,,---,-99.99,VWS V14.01,2013-05-11 05:17:00,
2013-05-10 22:22:00,50.4,9.7,30.39,WSW,245,15.0,18.8,19,-99.99,,---,-99.99,VWS V14.01,2013-05-11 05:22:00,
2013-05-10 22:27:00,50.2,9.5,30.39,WSW,258,17.9,17.9,19,-99.99,,---,-99.99,VWS V14.01,2013-05-11 05:27:00,
2013-05-10 22:32:00,50.2,9.5,30.39,WSW,252,16.3,16.3,19,-99.99,,---,-99.99,VWS V14.01,2013-05-11 05:32:00,
2013-05-10 22:37:00,50.2,9.5,30.42,WSW,242,15.0,17.9,19,-99.99,,---,-99.99,VWS V14.01,2013-05-11 05:37:00,
2013-05-10 22:42:00,50.0,9.4,30.42,WSW,254,19.2,19.2,19,-99.99,,---,-99.99,VWS V14.01,2013-05-11 05:42:00,
2013-05-10 22:47:00,50.0,9.4,30.42,WSW,251,19.7,19.7,19,-99.99,,---,-99.99,VWS V14.01,2013-05-11 05:47:00,
2013-05-10 22:52:00,50.2,9.5,30.42,WSW,255,17.0,17.9,19,-99.99,,---,-99.99,VWS V14.01,2013-05-11 05:52:00,
2013-05-10 22:57:00,50.0,9.4,30.42,WSW,241,16.8,17.4,19,-99.99,,---,-99.99,VWS V14.01,2013-05-11 05:57:00,
2013-05-10 23:02:00,50.4,9.7,30.42,WSW,257,15.4,20.1,19,-99.99,,---,-99.99,VWS V14.01,2013-05-11 06:02:00,
2013-05-10 23:07:00,50.4,9.7,30.42,WSW,244,18.8,19.7,19,-99.99,,---,-99.99,VWS V14.01,2013-05-11 06:07:00,
2013-05-10 23:12:00,50.5,9.8,30.42,WSW,258,19.2,19.2,19,-99.99,,---,-99.99,VWS V14.01,2013-05-11 06:12:00,
2013-05-10 23:18:00,50.5,9.8,30.42,WSW,256,15.9,19.2,19,-99.99,,---,-99.99,VWS V14.01,2013-05-11 06:18:00,
2013-05-10 23:23:00,50.4,9.7,30.42,WSW,244,18.3,19.7,19,-99.99,,---,-99.99,VWS V14.01,2013-05-11 06:23:00,
2013-05-10 23:28:00,50.4,9.7,30.42,WSW,255,15.0,21.5,19,-99.99,,---,-99.99,VWS V14.01,2013-05-11 06:28:00,
2013-05-10 23:33:00,50.2,9.5,30.42,WSW,254,18.8,19.7,19,-99.99,,---,-99.99,VWS V14.01,2013-05-11 06:33:00,
2013-05-10 23:38:00,50.2,9.5,30.42,West,261,20.6,20.6,19,-99.99,,---,-99.99,VWS V14.01,2013-05-11 06:38:00,
2013-05-10 23:43:00,50.5,9.8,30.42,WSW,251,13.2,19.7,19,-99.99,,---,-99.99,VWS V14.01,2013-05-11 06:43:00,
2013-05-10 23:48:00,50.4,9.7,30.42,WSW,252,15.4,19.2,19,-99.99,,---,-99.99,VWS V14.01,2013-05-11 06:48:00,
2013-05-10 23:53:00,50.4,9.7,30.42,West,259,17.4,17.4,19,-99.99,,---,-99.99,VWS V14.01,2013-05-11 06:53:00,
2013-05-10 23:58:00,50.5,9.8,30.42,WSW,256,14.5,16.3,19,-99.99,,---,-99.99,VWS V14.01,2013-05-11 06:58:00,